Location: Newark
(48.6461°N, 4.3644°W)
Time: 15:50:22
(UTC+00:00)

Vanguard 2 - All Passes

Search period start: 29 January 2020 00:00
Search period end: 08 February 2020 00:00
Orbit: 553 x 2938 km, 32.9° (Epoch: 28 January)

Date Brightness Start Highest point End Pass type
(mag) Time Alt. Az. Time Alt. Az. Time Alt. Az.
29 Jan - 08:27:25 10° SSW 08:38:08 21° SSE 08:46:43 10° ESE daylight
29 Jan - 10:35:31 10° SW 10:47:39 32° S 10:56:02 10° ESE daylight
29 Jan - 12:46:41 10° WSW 12:56:27 30° SSW 13:03:00 10° SE daylight
29 Jan - 14:59:43 10° WSW 15:03:49 14° SW 15:07:10 10° S daylight
30 Jan - 06:41:58 10° SSE 06:46:15 11° SE 06:50:19 10° SE visible
30 Jan - 08:43:29 10° SSW 08:55:45 26° SSE 09:05:11 10° ESE daylight
30 Jan - 10:52:48 10° SW 11:05:19 34° S 11:13:48 10° ESE daylight
30 Jan - 13:04:31 10° WSW 13:13:57 28° SSW 13:20:21 10° SE daylight
30 Jan - 15:19:32 10° SW 15:21:00 11° SW 15:22:22 10° SSW daylight
31 Jan - 06:54:48 10° S 07:03:41 16° SE 07:11:36 10° ESE visible
31 Jan - 09:00:02 10° SW 09:13:22 31° SSE 09:23:22 10° ESE daylight
31 Jan - 11:10:16 10° WSW 11:22:57 36° S 11:31:28 10° ESE daylight
31 Jan - 13:22:29 10° WSW 13:31:22 25° SSW 13:37:33 10° SSE daylight
01 Feb - 07:09:47 10° S 07:21:09 21° SSE 07:30:56 10° ESE visible
01 Feb - 09:16:57 10° SW 09:31:00 35° SSE 09:41:20 10° ESE daylight
01 Feb - 11:27:54 10° WSW 11:40:34 36° S 11:49:02 10° SE daylight
01 Feb - 13:40:39 10° WSW 13:48:42 22° SSW 13:54:31 10° SSE daylight
02 Feb - 07:25:39 10° SSW 07:38:38 26° SSE 07:49:35 10° ESE daylight
02 Feb - 09:34:08 10° SW 09:48:39 38° S 09:59:10 10° ESE daylight
02 Feb - 11:45:39 10° WSW 11:58:06 35° SSW 12:06:30 10° SE daylight
02 Feb - 13:59:06 10° WSW 14:05:55 18° SW 14:11:07 10° S daylight
03 Feb - 05:38:36 10° SSE 05:46:34 15° SE 05:54:12 10° ESE visible
03 Feb - 07:42:02 10° SSW 07:56:10 31° SSE 08:07:51 10° ESE daylight
03 Feb - 09:51:30 10° WSW 10:06:18 40° S 10:16:53 10° ESE daylight
03 Feb - 12:03:31 10° WSW 12:15:35 33° SSW 12:23:49 10° SE daylight
03 Feb - 14:18:06 10° WSW 14:23:03 14° SW 14:27:07 10° SSW daylight
04 Feb - 05:53:02 10° S 06:03:52 20° SE 06:14:04 10° ESE visible
04 Feb - 07:58:47 10° SW 08:13:44 35° SSE 08:25:54 10° ESE daylight
04 Feb - 10:09:03 10° WSW 10:23:56 41° S 10:34:31 10° ESE daylight
04 Feb - 12:21:31 10° WSW 12:32:59 29° SSW 12:40:58 10° SSE daylight
05 Feb - 06:08:35 10° SSW 06:21:13 25° SSE 06:33:00 10° ESE visible
05 Feb - 08:15:50 10° SW 08:31:20 39° SSE 08:43:49 10° ESE daylight
05 Feb - 10:26:43 10° WSW 10:41:31 40° S 10:52:03 10° SE daylight
05 Feb - 12:39:41 10° W 12:50:16 26° SSW 12:57:54 10° SSE daylight
06 Feb - 04:24:22 10° SSE 04:29:28 12° SE 04:34:37 10° ESE visible
06 Feb - 06:24:45 10° SSW 06:38:36 30° SSE 06:51:28 10° E visible
06 Feb - 08:33:06 10° SW 08:48:58 42° S 09:01:36 10° ESE daylight
06 Feb - 10:44:30 10° WSW 10:59:04 39° SSW 11:09:28 10° SE daylight
06 Feb - 12:58:07 10° W 13:07:28 21° SW 13:14:30 10° S daylight
07 Feb - 04:37:29 10° S 04:46:34 17° SE 04:55:52 10° ESE visible
07 Feb - 06:41:22 10° SSW 06:56:04 34° SSE 07:09:39 10° E visible
07 Feb - 08:50:32 10° WSW 09:06:36 43° S 09:19:19 10° ESE daylight
07 Feb - 11:02:23 10° WSW 11:16:32 36° SSW 11:26:45 10° SE daylight
07 Feb - 13:16:58 10° WSW 13:24:33 17° SW 13:30:35 10° S daylight
